, TX

(GMT )
Ingleside

Weather History for KTFP - March, 2013

Change the Weather History Date:

Sunday, March 17, 2013

  Actual Average Record
Temperature  
Mean Temperature 74 °F -  
Max Temperature 80 °F - - ()
Min Temperature 67 °F - - ()
Cooling Degree Days 8    
Growing Degree Days 24 (Base 50)    
Moisture  
Dew Point 67 °F    
Average Humidity 82    
Maximum Humidity 93    
Minimum Humidity 64    
Precipitation  
Precipitation 0.00 in - - ()
Sea Level Pressure  
Sea Level Pressure 29.75 in    
Wind  
Wind Speed 15 mph (SSE)    
Max Wind Speed 26 mph    
Max Gust Speed 31 mph    
Visibility 10 miles    
Events      
Averages and records for this station are not official NWS values.
T = Trace of Precipitation, MM = Missing Value Source: NWS Daily Summary

Daily Weather History Graph

Daily Weather History Graph

Search for Another Location

Airport or City:

Trip Planner

Search our weather history database for the weather conditions in past years. The results will help you decide how hot, cold, wet, or windy it might be!

Date:

Astronomy

Mar. 17, 2013 Rise Set
Actual Time 7:35 AM CDT 7:38 PM CDT
Civil Twilight 7:12 AM CDT 8:02 PM CDT
Nautical Twilight 6:45 AM CDT 8:29 PM CDT
Astronomical Twilight 6:17 AM CDT 8:56 PM CDT
Moon 11:17 AM CDT (3/17) 12:20 AM CDT (3/17)
Length of Visible Light 12h 49m
Length of Day
12h 02m
Waxing Crescent, 31% of the Moon is Illuminated
Mar 17
Waxing Crescent
Mar 19
First Quarter
Mar 27
Full
Apr 2
Last Quarter
Apr 10
New

Hourly Weather History & Observations

Time (CDT) Temp. Heat Index Dew Point Humidity Pressure Visibility Wind Dir Wind Speed Gust Speed Precip Events Conditions
12:15 AM 70.2 °F - 65.3 °F 85% 29.85 in 10.0 mi SSE 15.0 mph - N/A   Overcast
12:35 AM 70.2 °F - 65.3 °F 85% 29.84 in 10.0 mi SSE 15.0 mph 20.7 mph N/A   Overcast
12:55 AM 70.2 °F - 65.3 °F 85% 29.83 in 10.0 mi SSE 13.8 mph 19.6 mph N/A   Overcast
1:15 AM 69.8 °F - 65.3 °F 86% 29.83 in 10.0 mi SSE 15.0 mph 19.6 mph N/A   Mostly Cloudy
1:35 AM 69.8 °F - 65.3 °F 86% 29.83 in 10.0 mi SSE 13.8 mph 20.7 mph N/A   Mostly Cloudy
1:55 AM 70.0 °F - 65.3 °F 85% 29.81 in 10.0 mi SSE 15.0 mph - N/A   Overcast
2:15 AM 69.8 °F - 65.3 °F 86% 29.81 in 10.0 mi South 12.7 mph 18.4 mph N/A   Overcast
2:35 AM 69.6 °F - 65.3 °F 86% 29.81 in 10.0 mi SSE 12.7 mph 18.4 mph N/A   Mostly Cloudy
2:55 AM 69.4 °F - 65.3 °F 87% 29.80 in 10.0 mi SSE 16.1 mph 21.9 mph N/A   Mostly Cloudy
3:15 AM 69.8 °F - 65.3 °F 86% 29.79 in 10.0 mi SSE 16.1 mph 20.7 mph N/A   Mostly Cloudy
3:35 AM 69.6 °F - 65.3 °F 86% 29.78 in 10.0 mi SSE 15.0 mph - N/A   Scattered Clouds
3:55 AM 69.1 °F - 65.3 °F 88% 29.78 in 10.0 mi SSE 13.8 mph 20.7 mph N/A   Clear
4:15 AM 68.9 °F - 65.3 °F 88% 29.78 in 10.0 mi SSE 12.7 mph 18.4 mph N/A   Clear
4:35 AM 68.7 °F - 65.3 °F 89% 29.77 in 10.0 mi SSE 10.4 mph - N/A   Clear
4:55 AM 68.2 °F - 65.3 °F 90% 29.77 in 10.0 mi SSE 12.7 mph - N/A   Clear
5:35 AM 68.0 °F - 65.3 °F 91% 29.77 in 10.0 mi SSE 9.2 mph - N/A   Clear
5:55 AM 67.5 °F - 64.9 °F 92% 29.77 in 10.0 mi South 8.1 mph - N/A   Clear
6:15 AM 67.1 °F - 64.9 °F 93% 29.77 in 10.0 mi SSE 8.1 mph - N/A   Clear
6:35 AM 67.3 °F - 65.1 °F 93% 29.78 in 10.0 mi SSE 9.2 mph - N/A   Clear
6:55 AM 67.5 °F - 65.3 °F 93% 29.78 in 10.0 mi SSE 9.2 mph - N/A   Clear
7:15 AM 67.5 °F - 65.3 °F 93% 29.78 in 10.0 mi SSE 10.4 mph - N/A   Clear
7:35 AM 68.0 °F - 65.3 °F 91% 29.78 in 10.0 mi SSE 10.4 mph - N/A   Clear
7:55 AM 67.8 °F - 65.1 °F 91% 29.79 in 10.0 mi SSE 10.4 mph - N/A   Clear
8:15 AM 68.2 °F - 65.3 °F 90% 29.78 in 10.0 mi SSE 11.5 mph 16.1 mph N/A   Clear
8:35 AM 68.9 °F - 65.7 °F 89% 29.79 in 10.0 mi SSE 10.4 mph - N/A   Scattered Clouds
8:55 AM 69.8 °F - 66.0 °F 88% 29.79 in 10.0 mi SSE 11.5 mph - N/A   Scattered Clouds
9:15 AM 70.9 °F - 66.4 °F 86% 29.80 in 10.0 mi SSE 11.5 mph - N/A   Mostly Cloudy
9:35 AM 72.0 °F - 66.7 °F 84% 29.80 in 10.0 mi SSE 17.3 mph 21.9 mph N/A   Overcast
9:55 AM 73.4 °F - 67.1 °F 81% 29.81 in 10.0 mi SSE 15.0 mph 19.6 mph N/A   Mostly Cloudy
10:15 AM 73.6 °F - 67.1 °F 80% 29.82 in 10.0 mi SSE 13.8 mph 19.6 mph N/A   Overcast
10:35 AM 74.8 °F - 66.9 °F 76% 29.81 in 10.0 mi SSE 17.3 mph 23.0 mph N/A   Overcast
10:55 AM 76.3 °F - 66.9 °F 73% 29.82 in 10.0 mi South 17.3 mph 23.0 mph N/A   Mostly Cloudy
11:15 AM 76.5 °F - 66.6 °F 71% 29.81 in 10.0 mi SSE 20.7 mph 26.5 mph N/A   Overcast
11:35 AM 77.4 °F - 66.9 °F 70% 29.80 in 10.0 mi SSE 17.3 mph 25.3 mph N/A   Mostly Cloudy
11:55 AM 78.1 °F - 66.9 °F 68% 29.80 in 10.0 mi South 19.6 mph 29.9 mph N/A   Mostly Cloudy
12:15 PM 79.0 °F - 66.7 °F 66% 29.80 in 10.0 mi South 24.2 mph 27.6 mph N/A   Mostly Cloudy
12:35 PM 78.8 °F - 66.7 °F 66% 29.79 in 10.0 mi South 20.7 mph 28.8 mph N/A   Mostly Cloudy
12:55 PM 78.8 °F - 67.1 °F 67% 29.78 in 10.0 mi South 19.6 mph 25.3 mph N/A   Overcast
1:15 PM 79.5 °F - 67.1 °F 66% 29.77 in 10.0 mi SSE 21.9 mph 27.6 mph N/A   Overcast
1:35 PM 79.3 °F - 66.7 °F 65% 29.76 in 10.0 mi SSE 20.7 mph 27.6 mph N/A   Mostly Cloudy
1:55 PM 79.3 °F - 66.7 °F 65% 29.75 in 10.0 mi SSE 18.4 mph 27.6 mph N/A   Mostly Cloudy
2:15 PM 79.5 °F - 66.9 °F 65% 29.74 in 10.0 mi South 19.6 mph 27.6 mph N/A   Scattered Clouds
2:35 PM 80.2 °F 82.6 °F 67.1 °F 64% 29.72 in 10.0 mi SSE 19.6 mph 26.5 mph N/A   Scattered Clouds
2:55 PM 79.7 °F - 67.3 °F 66% 29.71 in 10.0 mi SSE 20.7 mph 27.6 mph N/A   Scattered Clouds
3:15 PM 79.3 °F - 67.3 °F 66% 29.70 in 10.0 mi SSE 20.7 mph 31.1 mph N/A   Scattered Clouds
3:35 PM 79.5 °F - 67.3 °F 66% 29.70 in 10.0 mi SSE 16.1 mph 27.6 mph N/A   Scattered Clouds
3:55 PM 79.5 °F - 67.5 °F 66% 29.69 in 10.0 mi SSE 26.5 mph 31.1 mph N/A   Clear
4:15 PM 79.2 °F - 67.3 °F 67% 29.69 in 10.0 mi SSE 21.9 mph 25.3 mph N/A   Clear
4:35 PM 79.2 °F - 67.1 °F 66% 29.68 in 10.0 mi SSE 20.7 mph 25.3 mph N/A   Clear
4:55 PM 79.5 °F - 67.3 °F 66% 29.68 in 10.0 mi SSE 18.4 mph 25.3 mph N/A   Clear
5:15 PM 78.3 °F - 67.5 °F 69% 29.68 in 10.0 mi SSE 19.6 mph 28.8 mph N/A   Clear
5:35 PM 77.5 °F - 67.5 °F 71% 29.68 in 10.0 mi SSE 20.7 mph 27.6 mph N/A   Clear
5:55 PM 77.2 °F - 67.6 °F 72% 29.68 in 10.0 mi SSE 17.3 mph 24.2 mph N/A   Clear
6:15 PM 76.6 °F - 67.8 °F 74% 29.67 in 10.0 mi SSE 20.7 mph 26.5 mph N/A   Clear
6:35 PM 75.6 °F - 68.0 °F 77% 29.68 in 10.0 mi SSE 17.3 mph 24.2 mph N/A   Clear
6:55 PM 74.5 °F - 68.2 °F 81% 29.68 in 10.0 mi SSE 18.4 mph 24.2 mph N/A   Clear
7:15 PM 73.6 °F - 68.4 °F 84% 29.67 in 10.0 mi SSE 18.4 mph 26.5 mph N/A   Clear
7:35 PM 72.5 °F - 68.2 °F 86% 29.68 in 10.0 mi SSE 15.0 mph - N/A   Clear
7:55 PM 72.0 °F - 68.4 °F 88% 29.68 in 7.0 mi SSE 17.3 mph 24.2 mph N/A   Scattered Clouds
8:15 PM 71.8 °F - 68.5 °F 89% 29.68 in 7.0 mi SSE 16.1 mph 21.9 mph N/A   Scattered Clouds
8:35 PM 71.6 °F - 68.9 °F 91% 29.69 in 7.0 mi SSE 12.7 mph 18.4 mph N/A   Mostly Cloudy
8:55 PM 71.2 °F - 68.9 °F 92% 29.69 in 7.0 mi SSE 13.8 mph 19.6 mph N/A   Mostly Cloudy
9:15 PM 71.1 °F - 68.9 °F 93% 29.70 in 7.0 mi SSE 17.3 mph 23.0 mph N/A   Mostly Cloudy
9:35 PM 71.1 °F - 68.9 °F 93% 29.70 in 7.0 mi SSE 13.8 mph 20.7 mph N/A   Mostly Cloudy
9:55 PM 71.1 °F - 68.9 °F 93% 29.71 in 7.0 mi SSE 16.1 mph 20.7 mph N/A   Overcast
10:15 PM 70.9 °F - 68.7 °F 93% 29.71 in 7.0 mi SSE 15.0 mph 21.9 mph N/A   Mostly Cloudy
10:35 PM 70.9 °F - 68.9 °F 93% 29.71 in 7.0 mi SSE 16.1 mph - N/A   Overcast
10:55 PM 70.9 °F - 68.9 °F 93% 29.72 in 7.0 mi SSE 12.7 mph 19.6 mph N/A   Overcast
11:15 PM 70.9 °F - 68.9 °F 93% 29.72 in 7.0 mi SSE 16.1 mph 21.9 mph N/A   Overcast
11:35 PM 71.2 °F - 69.1 °F 93% 29.72 in 7.0 mi SSE 12.7 mph 18.4 mph N/A   Overcast
11:55 PM 71.6 °F - 69.1 °F 92% 29.72 in 7.0 mi SSE 15.0 mph 20.7 mph N/A   Overcast